Columbus AFB, MS

2:29 AM CDT on May 25, 2017 (GMT -0500)
Columbus Air Force Base

Weather History for KCBM - July, 2013

Change the Weather History Date:

Monday, July 22, 2013

  Actual Average Record
Temperature  
Mean Temperature 76 °F -  
Max Temperature 82 °F 89 °F 98 °F (2010)
Min Temperature 71 °F 70 °F 66 °F (2007)
Cooling Degree Days 11    
Growing Degree Days 26 (Base 50)    
Moisture  
Dew Point 72 °F    
Average Humidity 89    
Maximum Humidity 100    
Minimum Humidity 71    
Precipitation  
Precipitation 0.21 in - - ()
Sea Level Pressure  
Sea Level Pressure 30.00 in    
Wind  
Wind Speed 6 mph (West)    
Max Wind Speed 21 mph    
Max Gust Speed 30 mph    
Visibility 9 miles    
Events Rain    
Averages and records for this station are not official NWS values.
T = Trace of Precipitation, MM = Missing Value Source: NWS Daily Summary

Daily Weather History Graph

Daily Weather History Graph

Search for Another Location

Airport or City:

Trip Planner

Search our weather history database for the weather conditions in past years. The results will help you decide how hot, cold, wet, or windy it might be!

Date:

Astronomy

Jul. 22, 2013 Rise Set
Actual Time 5:59 AM CDT 8:00 PM CDT
Civil Twilight 5:31 AM CDT 8:28 PM CDT
Nautical Twilight 4:57 AM CDT 9:02 PM CDT
Astronomical Twilight 4:20 AM CDT 9:38 PM CDT
Moon 7:51 PM CDT (7/22) 5:52 AM CDT (7/22)
Length of Visible Light 14h 57m
Length of Day
14h 01m
Full, 100% of the Moon is Illuminated
Jul 22
Full
Jul 22
Full
Jul 29
Last Quarter
Aug 6
New
Aug 14
First Quarter

Hourly Weather History & Observations

Time (CDT) Temp. Heat Index Dew Point Humidity Pressure Visibility Wind Dir Wind Speed Gust Speed Precip Events Conditions
12:58 AM 73.6 °F - 72.3 °F 96% 29.99 in 10.0 mi SE 5.8 mph - N/A   Clear
1:58 AM 73.4 °F - 73.4 °F 100% 29.97 in 10.0 mi SSE 4.6 mph - N/A   Clear
2:58 AM 74.3 °F - 73.9 °F 99% 29.96 in 10.0 mi Variable 4.6 mph - N/A   Clear
3:58 AM 74.3 °F - 73.9 °F 99% 29.96 in 10.0 mi South 6.9 mph - N/A   Scattered Clouds
4:58 AM 74.8 °F - 73.6 °F 96% 29.97 in 10.0 mi South 4.6 mph - N/A   Mostly Cloudy
5:48 AM 75.2 °F - 73.4 °F 94% 29.97 in 10.0 mi SW 3.5 mph - N/A   Mostly Cloudy
5:55 AM 74.7 °F - 73.2 °F 95% 29.97 in - North - - N/A   Mostly Cloudy
6:55 AM 75.4 °F - 73.0 °F 92% 29.97 in 10.0 mi Calm Calm - N/A   Clear
6:58 AM 75.4 °F - 73.0 °F 92% 29.98 in 10.0 mi SSW 2.3 mph - N/A   Clear
7:58 AM 79.5 °F - 72.7 °F 79% 29.99 in 10.0 mi SW 6.9 mph - N/A   Partly Cloudy
8:08 AM 78.8 °F - 73.4 °F 83% 29.99 in 10.0 mi WSW 9.2 mph - N/A   Mostly Cloudy
8:58 AM 78.4 °F - 72.0 °F 80% 30.01 in 10.0 mi WSW 5.8 mph - N/A   Overcast
9:58 AM 78.6 °F - 72.5 °F 81% 30.01 in 10.0 mi West 3.5 mph - N/A   Overcast
10:58 AM 79.5 °F - 72.7 °F 79% 30.01 in 10.0 mi West 5.8 mph - N/A   Overcast
11:53 AM 78.8 °F - 73.4 °F 83% 30.01 in 10.0 mi WNW 3.5 mph - N/A   Mostly Cloudy
11:58 AM 79.7 °F - 73.2 °F 80% 30.01 in 10.0 mi NNW 1.2 mph - N/A   Mostly Cloudy
12:17 PM 78.8 °F - 73.4 °F 83% 30.02 in 10.0 mi North 20.7 mph 29.9 mph N/A   Overcast
12:21 PM 77.0 °F - 71.6 °F 83% 30.03 in 10.0 mi North 19.6 mph 29.9 mph N/A Rain Light Rain
12:26 PM 75.2 °F - 69.8 °F 83% 30.04 in 10.0 mi North 13.8 mph 29.9 mph N/A Rain Light Rain
12:31 PM 73.4 °F - 69.8 °F 88% 30.04 in 9.0 mi North 11.5 mph 24.2 mph N/A Rain Light Rain
12:41 PM 71.6 °F - 69.8 °F 94% 30.04 in 9.0 mi North 9.2 mph - N/A Rain Light Rain
12:48 PM 71.6 °F - 69.8 °F 94% 30.04 in 10.0 mi North 8.1 mph - N/A Rain Light Rain
12:53 PM 71.6 °F - 69.8 °F 94% 30.04 in 5.0 mi North 4.6 mph - N/A Rain Rain
12:58 PM 71.6 °F - 69.8 °F 94% 30.04 in 5.0 mi Variable 2.3 mph - 0.04 in Rain Light Rain
1:13 PM 71.6 °F - 69.8 °F 94% 30.04 in 3.0 mi North 8.1 mph - N/A Rain Light Rain
1:18 PM 71.6 °F - 69.8 °F 94% 30.04 in 3.0 mi Variable 6.9 mph - N/A Rain Light Rain
1:23 PM 71.6 °F - 69.8 °F 94% 30.04 in 7.0 mi North 5.8 mph - N/A Rain Light Rain
1:38 PM 71.6 °F - 69.8 °F 94% 30.03 in 3.0 mi Calm Calm - N/A Rain Light Rain
1:43 PM 71.6 °F - 69.8 °F 94% 30.03 in 2.5 mi Calm Calm - N/A Rain Light Rain
1:48 PM 71.6 °F - 69.8 °F 94% 30.03 in 5.0 mi North 3.5 mph - N/A Rain Light Rain
1:53 PM 71.6 °F - 69.8 °F 94% 30.02 in 10.0 mi Calm Calm - N/A Rain Light Rain
1:58 PM 71.6 °F - 69.8 °F 94% 30.04 in 10.0 mi NW 6.9 mph - 0.15 in Rain Light Rain
2:27 PM 73.4 °F - 71.6 °F 94% 30.00 in 8.0 mi Variable 5.8 mph - N/A Rain Light Rain
2:38 PM 73.4 °F - 71.6 °F 94% 30.00 in 10.0 mi NW 5.8 mph - N/A   Scattered Clouds
2:42 PM 73.4 °F - 71.6 °F 94% 29.99 in 10.0 mi NW 3.5 mph - N/A Rain Light Rain
2:51 PM 73.4 °F - 71.6 °F 94% 29.98 in 10.0 mi Variable 3.5 mph - N/A   Scattered Clouds
2:58 PM 73.8 °F - 70.3 °F 89% 29.98 in 10.0 mi NE 2.3 mph - 0.01 in   Scattered Clouds
3:58 PM 79.3 °F - 69.6 °F 72% 29.95 in 10.0 mi WSW 5.8 mph - 0.01 in   Clear
4:58 PM 81.3 °F 85.4 °F 71.1 °F 71% 29.94 in 10.0 mi WSW 3.5 mph - N/A   Clear
5:58 PM 80.2 °F 83.9 °F 71.4 °F 74% 29.94 in 10.0 mi SSW 6.9 mph - N/A   Mostly Cloudy
6:58 PM 79.9 °F - 72.7 °F 79% 29.96 in 10.0 mi South 5.8 mph - N/A   Clear
7:58 PM 76.8 °F - 72.7 °F 87% 29.96 in 10.0 mi SSE 4.6 mph - N/A   Partly Cloudy
8:58 PM 76.1 °F - 72.3 °F 88% 29.98 in 10.0 mi South 4.6 mph - N/A   Mostly Cloudy
9:58 PM 75.4 °F - 72.5 °F 91% 29.96 in 10.0 mi SSE 6.9 mph - N/A   Clear
10:58 PM 74.8 °F - 72.7 °F 93% 29.96 in 10.0 mi SSE 2.3 mph - N/A   Clear
11:58 PM 74.1 °F - 73.9 °F 99% 29.96 in 10.0 mi SSE 4.6 mph - N/A   Partly Cloudy